Regional Weather Roundup
Issued by NWS Charleston, WV

Home | Current Version | Previous Version | Graphics & Text | Print | Product List | Glossary On
Versions: 1 2 3 4 5 6 7 8 9 10 11 12 13 14 15 16 17 18 19 20 21 22 23 24 25 26 27 28 29 30 31 32 33 34 35 36 37 38 39 40 41 42 43 44 45 46 47 48 49 50
000
ASUS41 KRLX 230210
RWRRLX
West Virginia Regional Weather Roundup
National Weather Service Charleston WV
1000 PM EDT FRI MAY 22 2015

Note: "fair" indicates few or no clouds below 12,000 feet with no
significant weather and/or obstructions to visibility.

WVZ003-230300-
Northern Panhandle of West Virginia

CITY           SKY/WX    TMP DP  RH WIND       PRES   REMARKS
WHEELING       NOT AVBL
$$

WVZ009-230300-
Northwest West Virginia

CITY           SKY/WX    TMP DP  RH WIND       PRES   REMARKS
PARKERSBURG    CLOUDY    61  49  64 CALM      30.28R
$$

WVZ006-230300-
Western West Virginia

CITY           SKY/WX    TMP DP  RH WIND       PRES   REMARKS
HUNTINGTON     CLOUDY    61  45  55 CALM      30.26R
$$

WVZ015-230300-
West Central West Virginia

CITY           SKY/WX    TMP DP  RH WIND       PRES   REMARKS
CHARLESTON     MOCLDY    61  48  62 SW7       30.26R
$$

WVZ022-031-230300-
North Central West Virginia

CITY           SKY/WX    TMP DP  RH WIND       PRES   REMARKS
CLARKSBURG     MOCLDY    54  54 100 NE5       30.26R
MORGANTOWN     PTCLDY    57  30  35 N8        30.28R
$$

WVZ025-035-042-045-230300-
Southern West Virginia

CITY           SKY/WX    TMP DP  RH WIND       PRES   REMARKS
BECKLEY        CLEAR     54  41  61 SW3       30.32R
LOGAN            N/A     61  45  55 CALM      30.27R
BLUEFIELD      PTCLDY    56  41  57 W6        30.33R
LEWISBURG      PTCLDY    60  40  48 CALM      30.30R
$$

WVZ047-230300-
Northern Mountains of West Virginia

CITY           SKY/WX    TMP DP  RH WIND       PRES   REMARKS
ELKINS         CLOUDY    56  46  69 CALM      30.28R
$$

WVZ052-230300-
Eastern Panhandle of West Virginia

CITY           SKY/WX    TMP DP  RH WIND       PRES   REMARKS
MARTINSBURG    CLEAR     63  43  48 NW6       30.20R
PETERSBURG     CLOUDY    60  43  54 CALM      30.25R
$$


USA.gov is the U.S. government's official web portal to all federal, state and local government web resources and services.